This is the latest recevied weather packets stored in our database for station/object KD8OZS. If no packets are shown the sender has not sent any weather packets the latest 10 day(s).
| Time | Temp. | Humidity | Pressure | Rain* | Wind** | Luminosity | Snow |
|---|---|---|---|---|---|---|---|
| 1787789549 | 20.56° C | 89% | 1006.9 hPa | 0 mm | - | 0 W/m² | - |
| 1787789248 | 20.56° C | 88% | 1007.2 hPa | 0 mm | - | 0 W/m² | - |
| 1787788943 | 20.56° C | 88% | 1006.8 hPa | 0 mm | - | 1 W/m² | - |
| 1787788640 | 20.56° C | 88% | 1007 hPa | 0 mm | - | 3 W/m² | - |
| 1787788335 | 20.56° C | 87% | 1007 hPa | 0 mm | - | 6 W/m² | - |
| 1787788031 | 21.11° C | 87% | 1006.9 hPa | 0 mm | - | 12 W/m² | - |
| 1787787726 | 21.11° C | 87% | 1006.9 hPa | 0 mm | - | 18 W/m² | - |
| 1787787424 | 21.67° C | 86% | 1006.7 hPa | 0 mm | - | 23 W/m² | - |
| 1787787119 | 21.67° C | 84% | 1006.9 hPa | 0 mm | - | 29 W/m² | - |
| 1787786819 | 21.67° C | 85% | 1006.6 hPa | 0 mm | - | 35 W/m² | - |
| 1787786514 | 21.67° C | 82% | 1006.7 hPa | 0 mm | - | 39 W/m² | - |
| 1787786209 | 21.67° C | 84% | 1006.7 hPa | 0 mm | - | 38 W/m² | - |
| 1787785905 | 22.22° C | 84% | 1007 hPa | 0 mm | - | 36 W/m² | - |
| 1787785600 | 22.78° C | 80% | 1006.8 hPa | 0 mm | - | 32 W/m² | - |
| 1787785295 | 22.78° C | 78% | 1006.7 hPa | 0 mm | - | 27 W/m² | - |
| 1787784994 | 22.78° C | 79% | 1006.8 hPa | 0 mm | - | 28 W/m² | - |
| 1787784694 | 23.33° C | 77% | 1007 hPa | 0 mm | - | 32 W/m² | - |
| 1787784393 | 23.89° C | 73% | 1007.2 hPa | 0 mm | - | 40 W/m² | - |
| 1787784087 | 23.89° C | 73% | 1007.2 hPa | 0 mm | - | 45 W/m² | - |
| 1787783784 | 23.89° C | 73% | 1007 hPa | 0 mm | - | 54 W/m² | - |
| 1787783484 | 23.89° C | 73% | 1007 hPa | 0 mm | - | 64 W/m² | - |
| 1787783179 | 23.89° C | 71% | 1007.1 hPa | 0 mm | - | 65 W/m² | - |
| 1787782874 | 24.44° C | 71% | 1007 hPa | 0 mm | - | 55 W/m² | - |
| 1787782568 | 24.44° C | 70% | 1007 hPa | 0 mm | - | 62 W/m² | - |
| 1787782263 | 24.44° C | 69% | 1006.9 hPa | 0 mm | - | 69 W/m² | - |
* Rain latest hour (hover to see other rain measurements)
** Current wind speed in m/s (hover to see current wind gust speed)